Location: *
(49.9853°N, 3.5569°E)
Time: 00:50:14
(UTC+00:00)

Cosmos 1452 Rocket - Pass Details

Date: 22 September 2019
Orbit: 768 x 774 km, 74.1° (Epoch: 13 October)

Event Time Altitude Azimuth Distance (km) Brightness Sun altitude
Rises 20:00:46 0° 198° (SSW) 3,226 6.6 -21.8°
Reaches altitude 10° 20:03:08 10° 197° (SSW) 2,303 5.8 -22.1°
Maximum altitude 20:08:22 80° 111° (ESE) 785 3.3 -22.9°
Drops below altitude 10° 20:13:38 10° 26° (NNE) 2,320 6.0 -23.6°
Sets 20:16:01 0° 25° (NNE) 3,251 6.8 -23.9°
